Regional Weather Roundup
Issued by NWS

Home | Current Version | Previous Version | Text Only | Print | Product List | Glossary On
Versions: 1 2 3 4 5 6 7 8 9 10 11 12 13 14 15 16 17 18 19 20 21 22 23 24 25 26 27 28 29 30 31 32 33 34 35 36 37 38 39 40 41 42 43 44 45 46 47 48 49 50
000
ASUS43 KMPX 110401
RWRMN
WEATHER ROUNDUP FOR MINNESOTA
NATIONAL WEATHER SERVICE TWIN CITIES/CHANHASSEN MN
1000 PM CST SUN DEC 10 2017


NOTE: "FAIR" INDICATES FEW OR NO CLOUDS BELOW 12,000 FEET WITH NO
SIGNIFICANT WEATHER AND/OR OBSTRUCTIONS TO VISIBILITY. N/A MEANS
CURRENT SKY AND/OR WEATHER CONDITIONS ARE NOT AVAILABLE.

MNZ060>063-068>070-110500-
   Twin Cities Metro

CITY           SKY/WX    TMP DP  RH WIND       PRES   REMARKS
TWIN CITIES    CLOUDY    24  21  88 CALM      29.99F
ST PAUL        CLOUDY    23  21  92 E6        30.01F WCI  16
CRYSTAL        CLOUDY    20  16  84 S3        29.98F
BLAINE         CLOUDY    25  23  93 S3        29.98F
LAKEVILLE      CLOUDY    19  19 100 CALM      30.00S
EDEN PRAIRIE   CLOUDY    23  20  88 SE3       29.98F
SOUTH ST PAUL  CLOUDY    23  21  91 CALM      30.00F
LAKE ELMO      FAIR      19  19 100 CALM      30.00F
$$
MNZ001>005-007-008-013>017-022>024-027-028-110500-
   Northwest Minnesota

CITY           SKY/WX    TMP DP  RH WIND       PRES   REMARKS
BEMIDJI        LGT SNOW  19  17  90 S6        29.84F WCI  11
HALLOCK        LGT SNOW  25  23  93 S17       29.78F WCI  11
ROSEAU         LGT SNOW  21  18  86 S9        29.80F WCI  11
WARROAD        LGT SNOW  18  16  93 S6        29.82F WCI   9
THIEF RVR FALL LGT SNOW  21  19  93 S9        29.83F FOG     WCI  11
CROOKSTON      LGT SNOW  25  23  93 S12       29.84F WCI  14
FOSSTON        LGT SNOW  21  19  93 S8        29.82F WCI  12
DETROIT LAKES  CLOUDY    27  23  86 S8        29.86F WCI  18
MOORHEAD       LGT SNOW  27  25  93 S10       29.89S WCI  17
PARK RAPIDS    CLOUDY    22  18  85 S7        29.85F WCI  13
MAHNOMEN       LGT SNOW  25  21  87 S9        29.83F WCI  15
$$
MNZ006-009>011-018-025>026-110500-
   North Central Minnesota

CITY           SKY/WX    TMP DP  RH WIND       PRES   REMARKS
BAUDETTE       CLOUDY    18  15  88 SE7       29.83F WCI   9
FLAG ISLAND    CLOUDY    18  16  93 S12       29.81F WCI   5
INTL FALLS     CLOUDY    11   7  84 SE6       29.88F WCI   1
WASKISH        CLOUDY    19  18  93 CALM      29.86F
BIG FORK       CLOUDY    16  12  86 CALM      29.88F
GRAND RAPIDS   CLOUDY    17  15  92 S5        29.92F WCI  10
ORR            CLOUDY     9   5  85 CALM      29.88S
COOK           CLOUDY     5   1  85 CALM      29.91S
WALKER         CLOUDY    20  17  86 S3        29.87F
$$
MNZ012-019>021-037-110500-
   Northeast Minnesota

CITY           SKY/WX    TMP DP  RH WIND       PRES   REMARKS
DULUTH         CLOUDY    10   8  92 CALM      29.92F
ELY            CLOUDY    -2  -6  84 E3        29.90F
HIBBING        CLOUDY     6   4  91 CALM      29.91S
EVELETH        CLOUDY     1  -4  78 CALM      29.92F
DULUTH HARBOR  CLOUDY    16  12  86 SW3       29.99F
TWO HARBORS    PTCLDY     9   1  72 CALM      29.93F
G MARAIS ARPRT CLEAR     -2  -8  78 NW3       29.89F
$$
MNZ029>031-032-039>041-046>048-054>057-064-110500-
   West Central Minnesota

CITY           SKY/WX    TMP DP  RH WIND       PRES   REMARKS
FERGUS FALLS   LGT SNOW  27  25  93 S7        29.92F WCI  19
MORRIS         CLOUDY    30  25  80 SE9       29.89F WCI  22
ALEXANDRIA     CLOUDY    28  23  81 S7        29.91F WCI  21
ELBOW LAKE     FLURRIES  28  25  89 S7        29.90F WCI  20
WADENA         CLOUDY    23  19  86 S5        29.87F WCI  17
GLENWOOD       CLOUDY    28  25  86 S5        29.92F WCI  23
BENSON         CLOUDY    30  27  86 S5        29.95F WCI  25
ORTONVILLE     CLOUDY    32  25  74 S7        29.92F WCI  26
MADISON        CLOUDY    34  28  80 S6        29.93F WCI  29
WILLMAR        FAIR      30  27  86 CALM      29.96F
$$
MNZ033>034-036-042>043-049>051-058-059-110500-
   Central Minnesota

CITY           SKY/WX    TMP DP  RH WIND       PRES   REMARKS
ST CLOUD       CLOUDY    23  20  88 S3        29.96F
SAUK CENTRE    MOCLDY    24  22  90 CALM      29.93F
PAYNESVILLE    CLOUDY    28  24  85 S5        29.95F WCI  23
AITKIN         CLOUDY    19  16  86 S3        29.92F
PINE RIVER     PTCLDY    19  16  86 CALM      29.93F
BRAINERD       CLOUDY    23  18  81 CALM      29.93F
STAPLES        CLOUDY    21  19  93 SE3       29.90F
LONG PRAIRIE   CLOUDY    23  21  93 S3        29.93F
LITTLE FALLS   CLOUDY    25  18  74 CALM      29.94F
LITCHFIELD     CLOUDY    28  27  93 CALM      29.97S
BUFFALO        CLOUDY    23  20  89 CALM      29.99S
MAPLE LAKE     CLOUDY    25  23  92 CALM      29.98S
HUTCHINSON     CLOUDY    28  26  92 CALM      29.98S
$$
MNZ037-044-045-052-053-110500-
   East Central Minnesota

CITY           SKY/WX    TMP DP  RH WIND       PRES   REMARKS
PRINCETON      CLOUDY    21  19  93 CALM      29.96F
MORA           CLOUDY    18  14  86 CALM      29.99S
CAMBRIDGE      CLOUDY    25  18  74 CALM      29.98F
RUSH CITY      CLOUDY    19  16  88 CALM      29.98F
MOOSE LAKE     CLOUDY    14  12  92 CALM      29.94S
HINCKLEY       MOCLDY    18  16  93 CALM      29.97S
CLOQUET        CLOUDY    14  10  85 CALM      29.93F
MCGREGOR       CLOUDY    19  18  93 S5        29.92F WCI  13
$$
MNZ071>073-080-081-089-090-097-098-110500-
   Southwest Minnesota

CITY           SKY/WX    TMP DP  RH WIND       PRES   REMARKS
MONTEVIDEO     CLOUDY    32  25  74 S5        29.94F WCI  27
GRANITE FALLS  CLOUDY    33  28  79 SE5       29.98F WCI  29
CANBY          CLOUDY    33  29  86 CALM      29.95F
MARSHALL       MOCLDY    33  27  78 SW5       29.96F WCI  29
REDWOOD FALLS  CLOUDY    32  26  78 S6        29.97S WCI  26
OLIVIA         PTCLDY    32  27  80 S3        29.96F
PIPESTONE      CLOUDY    34  27  75 W8        29.95R WCI  27
WINDOM           N/A     32  19  59 S3        29.96F
WORTHINGTON    CLOUDY    33  28  81 SW7       29.95F WCI  27
JACKSON        CLOUDY    32  28  86 MISG      29.97F
TRACY          MOCLDY    34  30  86 SW6       29.96R WCI  29
$$
MNZ065>067-074>077-082>085-091>093-110500-
   South Central Minnesota

CITY           SKY/WX    TMP DP  RH WIND       PRES   REMARKS
MANKATO        CLOUDY    28  25  88 S5        29.99F WCI  23
NEW ULM        CLOUDY    30  25  80 SW3       29.98R
ST JAMES       CLOUDY    30  27  86 S3        29.99S
FAIRMONT       CLOUDY    30  27  88 S5        29.98F WCI  25
GLENCOE        CLOUDY    27  24  88 CALM      29.97S
FARIBAULT      CLOUDY    21  19  93 CALM      29.99F
WASECA         CLOUDY    25  21  86 SE7       29.99F WCI  17
ALBERT LEA     CLOUDY    27  23  86 S5        29.99F WCI  21
$$
MNZ078>079-086>088-094>096-110500-
   Southeast Minnesota

CITY           SKY/WX    TMP DP  RH WIND       PRES   REMARKS
ROCHESTER      CLOUDY    20  19  96 S6        30.00F WCI  12
RED WING       PTCLDY    18  12  79 CALM      30.02S
STANTON        CLOUDY    20  18  89 S3        29.98F
DODGE CENTER   CLOUDY    18  18 100 S6        29.98F WCI   9
WINONA         CLOUDY    30  21  69 CALM      30.05F
PRESTON        CLOUDY    23  19  86 S3        30.01F
$$
ABBREVIATIONS USED IN REMARKS
   TC - TEMPERATURES IN CELSIUS
  WCI - WIND CHILL INDEX
   HX - HEAT INDEX
  VSB - VISIBILITY
$$




USA.gov is the U.S. government's official web portal to all federal, state and local government web resources and services.